Regional Weather Roundup
Issued by NWS

Home | Current Version | Previous Version | Text Only | Print | Product List | Glossary Off
Versions: 1 2 3 4 5 6 7 8 9 10 11 12 13 14 15 16 17 18 19 20 21 22 23 24 25 26 27 28 29 30 31 32 33 34 35 36 37 38 39 40 41 42 43 44 45 46 47 48 49 50

000
ASUS43 KLOT 301400
RWRIL

ILLINOIS REGIONAL WEATHER ROUNDUP
NATIONAL WEATHER SERVICE CHICAGO/ROMEOVILLE IL
900 AM CDT WED JUL 30 2014

NOTE: "FAIR" INDICATES FEW OR NO CLOUDS BELOW 12,000 FEET WITH NO
SIGNIFICANT WEATHER AND/OR OBSTRUCTIONS TO VISIBILITY.

* THESE STATIONS ARE NOT UNDER NWS QUALITY CONTROL. THEY ALSO MAY NOT
  REPORT WEATHER SUCH AS PRECIPITATION OR FOG.

ILZ001-002-007-009-015-016-024-301500-
NORTHWEST ILLINOIS

CITY           SKY/WX    TMP DP  RH WIND       PRES   REMARKS
MOLINE         SUNNY     69  58  67 CALM      30.08R
STERLING*      SUNNY     72  57  60 N7        30.07S
$$

ILZ003-004-008-010-011-017-018-301500-
NORTH CENTRAL ILLINOIS

CITY           SKY/WX    TMP DP  RH WIND       PRES   REMARKS
ROCKFORD       SUNNY     68  58  70 N5        30.07S
FREEPORT*      SUNNY     64  59  86 NW3       30.09S
$$

ILZ005-006-012>014-019>023-301500-
NORTHEAST ILLINOIS

CITY           SKY/WX    TMP DP  RH WIND       PRES   REMARKS
CHICAGO-OHARE  MOSUNNY   69  54  58 NW6       30.03S
CHICAGO-MIDWAY MOSUNNY   70  56  61 W8        30.04R
AURORA         SUNNY     66  59  78 NW6       30.05S
LANSING*       SUNNY     69  56  63 W5        30.05R
WAUKEGAN       SUNNY     65  58  78 W6        30.03S
DUPAGE AIRPORT SUNNY     68  57  68 NW3       30.04R
WHEELING       SUNNY     68  58  70 NW6       30.05S
NORTHERLY ISL    N/A     69  55  60 W5          N/A
$$

LMZ740>746-301500-
SOUTHERN LAKE MICHIGAN

STATION/POSITION SKY/WX   TEMP    WIND        PRES    VSBY  WAVE
                          AIR SEA DIR/SP/G                  HT/PER
                          (F)     (DEG/KT/KT) (MB)    (MI)  (FT/S)
SOUTHERN BUOY              60 60  300/  6/  8 1016.5R         1
WAUKEGAN HARBOR            64     340/  6/ 11   N/A
HARRISON CRIB              65     290/  5/  6   N/A
BURNHAM HARBOR             69     310/  5/  6   N/A
CALUMET HARBOR             68     310/  5/  6 1015.9R
MICHIGAN CITY              65     260/  8/ 10   N/A
MICHIGAN CITY 6N           65 68  290/  6/  8   N/A           1/ 3
ST. JOSEPH                 64 68  310/  8/ 10   N/A           1/ 2
$$

ILZ025>027-034>036-040-047-049-050-058-095>099-301500-
WEST-CENTRAL ILLINOIS

CITY           SKY/WX    TMP DP  RH WIND       PRES   REMARKS
QUINCY         SUNNY     71  60  68 W5        30.10S
GALESBURG*     SUNNY     68  62  81 W5        30.09R
MACOMB*        SUNNY     67  63  85 W5        30.11R
$$

ILZ028>032-037-038-041>044-048-051>054-059>061-301500-
CENTRAL ILLINOIS

CITY           SKY/WX    TMP DP  RH WIND       PRES   REMARKS
DECATUR        SUNNY     71  60  68 W6        30.09S
PEORIA         SUNNY     70  60  70 CALM      30.08R
SPRINGFIELD    SUNNY     70  61  73 SW3       30.10R
TAYLORVILLE    NOT AVBL
$$

ILZ033-039-045-046-055>057-062-063-301500-
EAST-CENTRAL ILLINOIS

CITY           SKY/WX    TMP DP  RH WIND       PRES   REMARKS
CHAMPAIGN      MOSUNNY   66  62  87 W8        30.09R
MATTOON        SUNNY     69  60  73 W3        30.08F
$$

ILZ079-100>102-301500-
SOUTHWEST ILLINOIS

CITY           SKY/WX    TMP DP  RH WIND       PRES   REMARKS
ALTON          MOSUNNY   72  63  73 CALM      30.11R
BELLEVILLE     MOSUNNY   72  62  72 SW5       30.10S
CAHOKIA*       MOSUNNY   72  60  66 VRB3      30.10S
SPARTA*        PTSUNNY   70  59  68 SW6       30.11S
$$

ILZ064>066-069>071-074>076-080>082-084>086-088>090-092>094-301500-
SOUTH-CENTRAL ILLINOIS

CITY           SKY/WX    TMP DP  RH WIND       PRES   REMARKS
CARBONDALE     PTSUNNY   69  59  70 SW3       30.11S
MT. VERNON     SUNNY     70  61  73 SW3       30.12S
SALEM*         SUNNY    N/A N/A N/A CALM      30.11S
$$

ILZ067-068-072-073-078-083-087-091-301500-
SOUTHEAST ILLINOIS

CITY           SKY/WX    TMP DP  RH WIND       PRES   REMARKS
LAWRENCEVILLE  SUNNY     69  60  73 W7        30.10S
HARRISBURG*    MOSUNNY   70  63  79 W5        30.12S
ROBINSON*      SUNNY     71  63  76 W5        30.10S
CARMI*         SUNNY     72  66  83 W3        30.10F
$$

ABBREVIATIONS USED IN REMARKS
   TC - TEMPERATURE IN CELSIUS
  WCI - WIND CHILL INDEX
   HX - HEAT INDEX
  VSB - VISIBILITY
$$



USA.gov is the U.S. government's official web portal to all federal, state and local government web resources and services.